Regional Weather Roundup
Issued by NWS Raleigh/Durham, NC

Home | Current Version | Previous Version | Text Only | Print | Product List | Glossary On
Versions: 1 2 3 4 5 6 7 8 9 10 11 12 13 14 15 16 17 18 19 20 21 22 23 24 25 26 27 28 29 30 31 32 33 34 35 36 37 38 39 40 41 42 43 44 45 46 47 48 49 50
000
ASUS42 KRAH 062110
RWRRAH
NORTH CAROLINA WEATHER ROUNDUP
NATIONAL WEATHER SERVICE RALEIGH NC
500 PM EDT MON JUL 06 2015

NOTE: "FAIR" INDICATES FEW OR NO CLOUDS BELOW 12,000 FEET WITH NO
SIGNIFICANT WEATHER AND/OR OBSTRUCTIONS TO VISIBILITY.

NCZ001-053-055-056-065-067-062200-
WESTERN NORTH CAROLINA

CITY           SKY/WX    TMP DP  RH WIND       PRES   REMARKS
ASHEVILLE      PTSUNNY   82  64  54 NW13      30.15F
JEFFERSON      CLOUDY    76  54  47 W12G20    30.20F
MORGANTON      LGT RAIN  82  66  57 CALM      30.14S
HICKORY        PTSUNNY   86  60  41 SW5       30.08S
RUTHERFORDTON  NOT AVBL
MOUNT AIRY     PTSUNNY   83  66  57 W6        30.12R
BOONE          LGT RAIN  74  58  57 NW10G22   30.22S
$$

NCZ021-022-025-041-071-084-088-062200-
CENTRAL NORTH CAROLINA

CITY           SKY/WX    TMP DP  RH WIND       PRES   REMARKS
CHARLOTTE      MOSUNNY   90  62  39 SW6       30.07F
GREENSBORO     PTSUNNY   88  64  44 W12       30.07F
WINSTON-SALEM  PTSUNNY   85  63  47 W5        30.09F
RALEIGH-DURHAM MOSUNNY   89  68  49 SW10G16   30.07F
FORT BRAGG     MOSUNNY   90  68  48 VRB6      30.05F
FAYETTEVILLE   MOSUNNY   90  68  48 S8        30.05F
BURLINGTON     MOSUNNY   87  67  51 SW9       30.07F
LAURINBURG     MOSUNNY   90  67  46 SW9       30.07F HAZE
$$

NCZ011-015-027-028-043-044-047-080-103-062200-
NORTHEASTERN NORTH CAROLINA

CITY           SKY/WX    TMP DP  RH WIND       PRES   REMARKS
ROCKY MT-WILSO MOSUNNY   91  68  46 SW14      30.06F HX  95
GREENVILLE     MOSUNNY   90  70  51 SW7       30.08S HX  95
WASHINGTON     MOSUNNY   85  73  65 S7        30.08S
ELIZABETH CITY CLOUDY    84  74  71 S13       30.09F
MANTEO         PTSUNNY   82  74  74 SW14      30.11S
CAPE HATTERAS  PTSUNNY   82  74  76 S12       30.12F
$$

NCZ078-087-090-091-093-098-101-062200-
SOUTHEASTERN NORTH CAROLINA

CITY           SKY/WX    TMP DP  RH WIND       PRES   REMARKS
LUMBERTON      SUNNY     91  68  46 S8        30.06F HX  95
GOLDSBORO      SUNNY     91  68  46 S2        30.04F HX  95
KINSTON        MOSUNNY   91  66  43 S7        30.07F
KENANSVILLE    SUNNY     89  65  45 CALM      30.08F
NEW BERN       SUNNY     88  71  57 S10G18    30.09F
CHERRY POINT   SUNNY     88  69  53 S13       30.10F
BEAUFORT       MOSUNNY   84  75  74 S14       30.11S
JACKSONVILLE   SUNNY     85  71  63 S13       30.08F
WILMINGTON     SUNNY     88  71  57 S12       30.08F
$$



USA.gov is the U.S. government's official web portal to all federal, state and local government web resources and services.